Preview of NWS' New Version of Forecast
This preview is not operational and should not be used for support decisions.

Regional Weather Roundup (RWR)

Issued by National Weather Service (NWS)

                            
000
ASUS44 KMEG 221200
RWRTN 
TENNESSEE HOURLY STATE WEATHER ROUNDUP
NATIONAL WEATHER SERVICE MEMPHIS TN
700 AM CDT WED MAY 22 2019

TNZ002-004-019-021-049-052-054-088>092-221300-
WEST TENNESSEE
  
CITY           SKY/WX    TMP DP  RH WIND       PRES   REMARKS
MEMPHIS INTL   CLOUDY    77  70  79 S13       29.89R                  
NWS MEMPHIS      N/A     75 N/A N/A MISG        N/A                   
JACKSON        PTSUNNY   73  67  81 S6        29.92R                  
DYERSBURG      CLOUDY    66  63  90 E9        29.91R                  
SELMER         SUNNY     72  68  88 S9G17     29.93R                  
$$

TNZ008-025-027-028-033-062-065-066-221300-
NORTH MIDDLE TENNESSEE
  
CITY           SKY/WX    TMP DP  RH WIND       PRES   REMARKS
NASHVILLE      CLOUDY    73  63  70 SW6       29.97R                  
CLARKSVILLE    FAIR      75  64  68 SW9       29.94R                  
SMYRNA         FAIR      72  65  78 S7        29.98S                  
LIVINGSTON     SUNNY     73  61  64 S6        30.04R                  
CROSSVILLE     FAIR      68  60  75 CALM      30.09R                  
$$

TNZ061-075-076-078-094-096-097-221300-
SOUTH MIDDLE TENNESSEE
  
CITY           SKY/WX    TMP DP  RH WIND       PRES   REMARKS
$$

TNZ017-018-042-046-047-221300-
NORTHEAST TENNESSEE
  
CITY           SKY/WX    TMP DP  RH WIND       PRES   REMARKS
TRI CITIES     FAIR      68  58  70 CALM      30.12F                  
$$

TNZ012-013-036-069-073-074-221300-
CENTRAL EAST TENNESSEE
  
CITY           SKY/WX    TMP DP  RH WIND       PRES   REMARKS
KNOXVILLE      PTSUNNY   69  61  75 CALM      30.05R                  
OAK RIDGE      FAIR      66  59  78 CALM      30.08R                  
$$

TNZ083-085-099-221300-
SOUTHEAST TENNESSEE
  
CITY           SKY/WX    TMP DP  RH WIND       PRES   REMARKS
CHATTANOOGA    FAIR      72  66  81 CALM      30.06R                  
$$

SKY/WX REPORTED AS FAIR MEANS FEW OR NO CLOUDS BELOW
12 THOUSAND FEET.